This is the latest recevied weather packets stored in our database for station/object IZ8XTV-13. If no packets are shown the sender has not sent any weather packets the latest 1 day(s).
| Time | Temp. | Humidity | Pressure | Rain* | Wind** | Luminosity | Snow |
|---|---|---|---|---|---|---|---|
| 1777985904 | 21.67° C | 80% | 1017.4 hPa | 0 mm | 0 m/s | - | - |
| 1777985291 | 21.67° C | 79% | 1017.5 hPa | 0 mm | 0 m/s | - | - |
| 1777984679 | 21.11° C | 81% | 1017.6 hPa | 0 mm | 0 m/s | - | - |
| 1777984067 | 20.56° C | 82% | 1017.6 hPa | 0 mm | 0 m/s | - | - |
| 1777983455 | 20.56° C | 81% | 1017.8 hPa | 0 mm | 0 m/s | - | - |
| 1777982843 | 20.56° C | 81% | 1017.8 hPa | 0 mm | 0 m/s | - | - |
| 1777982231 | 21.11° C | 80% | 1017.9 hPa | 0 mm | 0 m/s | - | - |
| 1777981618 | 20.56° C | 81% | 1017.9 hPa | 0 mm | 0 m/s | - | - |
| 1777981006 | 20.56° C | 82% | 1017.9 hPa | 0 mm | 0 m/s | - | - |
| 1777980394 | 21.11° C | 81% | 1018 hPa | 0 mm | 0 m/s | - | - |
| 1777979783 | 21.11° C | 81% | 1018 hPa | 0 mm | 0 m/s | - | - |
| 1777979171 | 20.56° C | 82% | 1018 hPa | 0 mm | 0 m/s | - | - |
| 1777978559 | 19.44° C | 82% | 1018.1 hPa | 0 mm | 0 m/s | - | - |
| 1777977946 | 19.44° C | 83% | 1018.1 hPa | 0 mm | 0 m/s | - | - |
| 1777977334 | 19.44° C | 84% | 1018.2 hPa | 0 mm | 0 m/s | - | - |
| 1777976721 | 18.89° C | 84% | 1018.1 hPa | 0 mm | 0 m/s | - | - |
| 1777976109 | 18.89° C | 83% | 1018.1 hPa | 0 mm | 0 m/s | - | - |
| 1777975929 | 19.44° C | 81% | 1018.1 hPa | 0 mm | 0 m/s | - | - |
| 1777975316 | 18.33° C | 83% | 1018 hPa | 0 mm | 0 m/s | - | - |
| 1777974705 | 18.89° C | 81% | 1018.1 hPa | 0 mm | 0 m/s | - | - |
| 1777974094 | 19.44° C | 81% | 1018 hPa | 0 mm | 0 m/s | - | - |
| 1777973483 | 19.44° C | 80% | 1017.8 hPa | 0 mm | 0 m/s | - | - |
| 1777972871 | 18.89° C | 79% | 1017.6 hPa | 0 mm | 0 m/s | - | - |
| 1777972259 | 18.33° C | 81% | 1017.7 hPa | 0 mm | 0 m/s | - | - |
| 1777971646 | 18.33° C | 83% | 1017.8 hPa | 0 mm | 0 m/s | - | - |
* Rain latest hour (hover to see other rain measurements)
** Current wind speed in m/s (hover to see current wind gust speed)